Location: Adforton
(52.3333°N, 2.8667°W)
Time: 16:28:21
(UTC+00:00)

Daily predictions for brighter satellites

Satellite Brightness Start Highest point End
(mag) Time Altitude Azimuth Time Altitude Azimuth Time Altitude Azimuth
Radarsat Rocket 4.3 16:39:50 10° SSE 16:46:52 88° ENE 16:53:08 10° NNW
Envisat 3.9 16:44:21 10° ESE 16:48:32 27° ENE 16:52:44 10° N
SJ-7 4.5 16:45:09 10° SSE 16:49:20 66° ENE 16:53:35 10° N
Cosmos 1356 Rocket 4.2 16:47:26 10° SSE 16:51:13 33° E 16:55:04 10° NNE
Cosmos 1689 Rocket 2.1 16:50:21 10° NNE 16:53:25 84° ESE 16:56:28 10° SSW
Cosmos 1842 Rocket 3.8 16:51:23 10° SSW 16:55:52 76° WNW 17:00:21 10° N
PSLV R/B 4.5 16:53:37 10° NNE 16:57:39 42° E 17:01:39 10° S
Meteor 1-27 4.3 16:53:33 10° S 16:59:14 77° E 17:05:03 10° NNE
H-2A R/B 4.3 16:56:41 10° N 16:59:51 20° WNW 17:02:56 10° WSW
Cosmos 724 4.2 16:55:40 10° NW 17:01:34 76° NE 17:07:21 10° SE
CZ-4 R/B 2.8 17:02:04 10° ESE 17:04:54 18° ENE 17:07:42 10° NNE
ATLAS 3B R/B 3.6 16:59:44 10° WNW 17:05:34 31° N 17:11:21 10° ENE
USA 238 DEB 4.4 17:00:36 10° NW 17:07:07 39° NNE 17:13:53 10° E
USA 238 4.4 17:00:42 10° NW 17:07:14 39° NNE 17:13:59 10° E
Cosmos 1371 Rocket 4.3 17:03:08 10° NNW 17:08:10 45° NE 17:13:08 10° SE
Cosmos 1805 Rocket 3.5 17:04:51 10° N 17:09:16 85° E 17:13:39 10° SSE
NOSS 3-2 (A) 4.4 17:04:05 10° NW 17:10:30 39° NNE 17:17:43 10° E
Cosmos 1455 4.4 17:07:56 10° SW 17:11:06 25° WNW 17:14:17 10° NNW
CORIOLIS 4.2 17:05:51 10° SE 17:11:10 60° ENE 17:16:32 10° N
Lacrosse 4 Rocket 1.9 17:07:39 10° S 17:11:28 41° ESE 17:15:07 11° NE
Cosmos 2369 Rocket 4.2 17:08:27 10° WNW 17:12:23 19° NNW 17:16:19 10° NNE
Cosmos 1633 2.6 17:10:54 10° N 17:14:30 56° ENE 17:18:05 10° SSE
Cosmos 1862 3.5 17:11:02 10° N 17:14:54 47° ENE 17:18:47 10° SSE
Cosmos 1238 Rocket 4.2 17:17:23 10° NNW 17:21:17 40° W 17:24:34 10° SSW
Cosmos 1943 Rocket 4.3 17:20:41 10° WNW 17:24:13 17° NNW 17:27:47 10° NNE
NOAA 12 4.2 17:19:29 10° SE 17:24:42 58° ENE 17:29:56 10° N
Cosmos 1980 Rocket 3.1 17:20:17 10° SSE 17:25:02 28° ESE 17:29:07 13° NE
Meteor 2-20 Rocket 4.5 17:19:08 10° S 17:25:09 63° E 17:31:15 10° NNE
Cosmos 2034 Rocket 4.1 17:19:19 10° N 17:25:35 54° ENE 17:31:49 10° SSE
Cosmos 2297 Rocket 3.7 17:22:44 10° NW 17:28:00 40° WSW 17:33:14 10° S
CZ-4B R/B 3.7 17:25:48 10° N 17:28:38 25° WNW 17:31:29 10° WSW
Cosmos 2227 Rocket 3.6 17:23:30 10° NW 17:28:50 43° WSW 17:34:07 10° S
BREEZE-M DEB (TANK) 4.5 17:24:43 10° SSW 17:28:56 18° SSE 17:31:29 10° ESE
APEX 4.3 17:27:50 10° SSE 17:30:02 17° ESE 17:30:28 17° ESE
Cosmos 1680 Rocket 3.9 17:26:20 10° S 17:31:15 43° ESE 17:36:11 10° NE
Ariane Rocket 4.3 17:29:42 15° E 17:31:46 19° NE 17:35:15 10° N
Okean-O 2.6 17:28:18 10° SSE 17:32:41 63° ENE 17:37:05 10° N
Meteor 2-20 4.5 17:28:26 10° S 17:34:35 90° W 17:40:48 10° N
Cosmos 1633 Rocket 3.0 17:30:29 10° N 17:34:54 71° ENE 17:39:20 10° SSE
Genesis I 4.5 17:31:53 10° WSW 17:35:36 35° NW 17:38:56 12° NNE
Cosmos 44 4.2 17:33:02 10° NNW 17:36:42 25° NNE 17:38:32 19° ENE
Sich 1 3.4 17:34:40 10° NNW 17:39:01 69° W 17:43:23 10° S
Cosmos 1151 Rocket 3.6 17:35:34 10° SSE 17:39:33 36° E 17:43:35 10° NNE
Cosmos 2263 Rocket 2.4 17:37:44 10° NNW 17:43:08 46° NE 17:48:29 10° ESE
H-2A R/B 3.2 17:44:52 10° S 17:48:40 64° W 17:52:26 10° NNW
Cosmos 1666 Rocket 3.9 17:46:41 10° NNW 17:51:03 70° W 17:55:21 10° S
Okean O Rocket 4.3 17:48:26 10° SW 17:51:51 22° W 17:55:17 10° NW
Cosmos 1933 Rocket 3.7 17:47:50 10° N 17:52:03 46° ENE 17:56:14 10° SSE
Cosmos 1328 Rocket 3.7 17:48:07 10° S 17:52:23 51° E 17:56:39 10° NNE
Cosmos 2228 Rocket 4.1 17:48:59 10° SE 17:52:36 24° E 17:52:41 24° E
Cosmos 1869 4.1 17:49:10 10° SSW 17:53:01 50° WNW 17:56:52 10° N
USA 215 3.4 17:48:57 19° E 17:53:41 62° N 18:00:07 10° WNW
BREEZE-M DEB (TANK) 2.7 17:50:46 10° W 17:54:11 47° S 17:55:05 28° SE
COSMO-SKYMED 1 3.1 17:52:25 18° NE 17:55:13 36° E 17:59:14 10° SSE
ERBS 2.2 17:53:45 10° WSW 17:57:05 77° NNW 17:58:20 36° NE
NOSS 3-2 (C) 4.4 17:50:36 10° NW 17:57:12 43° NNE 18:01:44 23° E
Cosmos 923 Rocket 3.9 17:52:44 10° SSW 17:57:57 85° ESE 18:02:58 11° NNE
Cosmos 1515 Rocket 4.0 17:54:00 10° SSE 17:58:02 38° E 18:00:30 20° NE
Cosmos 2369 3.6 17:52:40 10° SSW 17:58:21 81° ESE 18:03:23 14° NNE
Cosmos 1624 Rocket 4.0 17:53:01 10° NNW 17:58:25 89° ENE 18:03:45 10° SSE
Tsikada Rocket 4.2 17:52:28 10° SSE 17:58:34 49° E 18:04:42 10° NNE
YAOGAN 6 2.5 17:56:10 10° SSE 17:59:35 56° ENE 18:03:02 10° N
Cosmos 2056 Rocket 3.4 17:54:31 10° NNW 17:59:42 88° ENE 18:04:54 10° SSE
Cosmos 1697 Rocket 2.6 17:56:24 10° SSW 18:02:03 81° ESE 18:06:49 15° NNE
NOSS 2-3 (E) 3.8 18:00:53 10° SSW 18:05:19 69° SE 18:08:10 26° NE
SeaSat 1 2.4 18:00:48 10° SSE 18:05:45 89° SW 18:10:44 10° NNW
USA 229 DEB 3.9 18:02:17 10° WSW 18:08:54 67° NW 18:14:09 19° NE
SMAP 4.5 18:04:36 10° SSW 18:09:00 41° W 18:13:26 10° NNW
USA 229 3.9 18:02:22 10° WSW 18:09:00 68° NW 18:14:15 19° NE
Cosmos 1656 4.1 18:05:35 10° SW 18:11:02 58° NW 18:15:58 12° NNE
NOSS 3-1 (C) 3.7 18:05:47 10° WSW 18:11:31 67° NW 18:16:19 20° NE
H-2A R/B 3.8 18:14:20 16° NNE 18:14:20 16° NNE 18:16:13 10° N
NOSS 3-1 (A) 3.4 18:08:13 10° SW 18:13:58 84° NW 18:18:24 22° NE
FengYun 1-2 T 4.1 18:09:15 10° SSE 18:14:46 88° ENE 18:20:18 10° NNW
NOSS 2-3 (D) 3.7 18:10:35 10° SW 18:15:02 75° SE 18:17:31 31° NE
Cosmos 2278 3.6 18:10:16 10° SSW 18:15:57 83° ESE 18:20:09 19° NNE
Cosmos 2360 4.1 18:10:20 10° SSW 18:16:01 72° ESE 18:19:48 22° NE
YAOGAN 1 2.4 18:17:50 10° SSE 18:22:08 73° ENE 18:26:29 10° N
Cosmos 1470 Rocket 3.8 18:17:59 10° NNW 18:22:29 72° W 18:26:56 10° S
Cosmos 1844 Rocket 3.6 18:19:56 10° NNW 18:24:47 29° NE 18:24:56 29° NE
Envisat 3.6 18:22:15 10° S 18:27:14 58° WSW 18:32:18 10° NNW
Cosmos 2344 4.4 18:24:11 10° W 18:31:36 48° NNW 18:37:32 21° NE
Cosmos 2278 Rocket 3.9 18:28:22 10° NNW 18:31:51 16° NNE 18:31:51 16° NNE
Cosmos 2227 4.5 18:27:45 10° NW 18:33:32 71° WSW 18:39:14 10° SSE
COBE Rocket 4.5 18:29:46 10° N 18:34:26 55° WNW 18:39:00 10° SSW
CENTAUR R/B 3.4 18:27:34 10° NW 18:34:48 49° NNE 18:37:54 35° ENE
Cosmos 2346 Rocket 4.4 18:30:34 10° S 18:36:48 86° W 18:43:00 10° N
CZ-4 R/B 1.9 18:35:30 10° S 18:39:33 61° WSW 18:43:35 10° NNW
Cosmos 1420 Rocket 3.9 18:34:38 10° NNW 18:39:52 89° WSW 18:43:51 17° SSE
CSL-04 Debris 4.2 18:34:43 10° SSE 18:40:14 81° WSW 18:45:45 10° NNW
NOAA 11 4.0 18:35:58 10° SSE 18:41:22 76° ENE 18:46:50 10° NNW
Cosmos 158 Rocket 3.9 18:37:00 10° SSW 18:42:16 87° ESE 18:44:28 36° NNE
Cosmos 1939 Rocket 3.3 18:43:52 51° N 18:43:52 51° N 18:47:05 10° N
SKYMED 2 3.6 18:41:06 26° N 18:43:31 82° WNW 18:47:51 10° SSW
Cosmos 1606 3.9 18:43:38 10° S 18:45:44 32° S 18:45:44 32° S
Cosmos 1452 Rocket 3.4 18:42:50 10° NNW 18:48:10 87° ENE 18:50:33 34° SSE
Meteor 1-26 Rocket 4.3 18:42:27 10° S 18:48:19 62° E 18:51:16 30° NNE
Geosat 3.9 18:47:22 44° NE 18:49:03 88° SE 18:54:05 10° SSW
Lacrosse 4 Rocket 2.8 18:46:34 10° WSW 18:50:14 32° NW 18:51:27 27° N
CSL-04 Rocket 3.9 18:45:46 10° S 18:51:04 68° WSW 18:56:22 10° NNW
NOSS 2-3 (C) 4.1 18:48:21 10° WSW 18:52:55 66° NW 18:54:22 45° NNE
Cosmos 1933 3.5 18:50:36 10° SSW 18:54:40 72° WNW 18:54:53 70° NW
ATLAS 3B R/B 3.0 18:51:25 10° NW 18:57:48 45° NNE 18:58:36 43° NE
Cosmos 2369 Rocket 4.5 18:57:11 10° NNW 18:58:51 11° N 19:00:14 10° NNE
USA 238 DEB 3.7 18:51:52 10° NW 18:59:02 81° NE 19:01:32 45° ESE
USA 238 3.7 18:51:58 10° NW 18:59:08 81° NE 19:01:36 46° ESE
Meteor 1-20 Rocket 4.5 18:55:18 10° NNW 19:01:09 71° W 19:06:54 10° S
NOSS 3-2 (A) 3.9 18:55:09 10° NW 19:02:25 78° NE 19:05:08 46° ESE
GEOS 3 Rocket 3.5 19:06:16 70° NE 19:06:54 88° NW 19:12:11 10° SW
Cosmos 1980 Rocket 2.5 19:03:01 10° SW 19:08:40 63° NW 19:10:55 36° NNE
SL-16 R/B 3.0 19:03:37 10° S 19:07:07 36° SSE 19:07:07 36° SSE
Ariane Rocket 2.9 19:09:55 84° S 19:10:06 89° WSW 19:15:14 10° NNW
Cosmos 1943 Rocket 4.5 19:08:41 10° NNW 19:10:34 12° N 19:11:15 11° N
Cosmos 2322 Rocket 3.5 19:10:10 10° S 19:12:37 26° S 19:12:37 26° S
Cosmos 44 4.1 19:14:05 10° NW 19:16:58 40° NW 19:16:58 40° NW
Cosmos 2263 Rocket 3.4 19:21:52 10° NW 19:27:01 39° WSW 19:31:01 16° S
Cosmos 2228 Rocket 4.1 19:26:15 10° SSW 19:30:14 45° W 19:30:14 45° W
COSMO-SKYMED 1 4.3 19:29:38 23° NNW 19:31:20 31° WNW 19:35:10 10° SW
USA 215 3.1 19:36:18 84° SE 19:36:34 89° SSW 19:43:09 10° WNW
Cosmos 2279 Rocket 4.4 19:38:20 10° NNW 19:44:27 61° W 19:47:26 31° SSW
Cosmos 1697 Rocket 4.4 19:41:54 10° W 19:46:41 27° NW 19:48:34 23° N
NOSS 3-2 (C) 3.8 19:41:38 10° NW 19:48:58 89° SW 19:49:12 85° SE
H-2A R/B 4.0 19:54:58 22° NNW 19:54:58 22° NNW 19:56:42 10° NNW
Cosmos 1844 Rocket 4.1 20:03:38 10° NNW 20:06:37 33° NW 20:06:37 33° NW
Cosmos 2278 Rocket 4.3 20:12:03 10° NNW 20:13:42 19° NNW 20:13:42 19° NNW
CENTAUR R/B 3.3 20:18:22 10° NW 20:25:06 68° WNW 20:25:06 68° WNW
ATLAS 3B R/B 4.0 20:42:14 10° NW 20:45:51 34° NW 20:45:51 34° NW
Cosmos 1980 Rocket 4.5 20:49:41 10° WNW 20:52:42 19° NW 20:52:42 19° NW
